Location: Unspecified
(0.0000°N, 0.0000°E)
Time: 02:29:35
(UTC+00:00)

SR - Pass Details

Date: 20 December 2018
Orbit: 581 x 876 km, 66.7° (Epoch: 16 January)

Event Time Altitude Azimuth Distance (km) Brightness Sun altitude
Rises 10:37:48 0° 359° (N) 2,814 ? 59.6°
Reaches altitude 10° 10:40:19 10° 12° (NNE) 1,897 ? 60.0°
Maximum altitude 10:43:54 27° 70° (ENE) 1,127 ? 60.5°
Drops below altitude 10° 10:47:29 10° 128° (SE) 1,898 ? 61.0°
Sets 10:49:59 0° 141° (SE) 2,816 ? 61.4°
